Location: St. Louis
(38.6270°N, 90.1994°W)
Time: 12:44:26
(UTC-06:00)

Transit 2A - Pass Details

Date: 30 November 2021
Orbit: 591 x 967 km, 66.7° (Epoch: 16 January)

Event Time Altitude Azimuth Distance (km) Brightness Sun altitude
Rises 23:17:26 0° 168° (SSE) 3,193 - -71.8°
Reaches altitude 10° 23:20:12 10° 153° (SSE) 2,341 - -72.0°
Maximum altitude 23:24:16 22° 104° (ESE) 1,751 - -72.3°
Drops below altitude 10° 23:28:38 10° 56° (NE) 2,541 - -72.6°
Sets 23:31:46 0° 42° (NE) 3,543 - -72.8°
